Location: Jonesport
(44.5330°N, 67.5990°W)
Time: 16:53:15
(UTC-05:00)

Iridium 35 - Visible Passes

Search period start: 25 November 2014 00:00
Search period end: 05 December 2014 00:00
Orbit: 776 x 779 km, 86.4° (Epoch: 25 November)

Date Brightness Start Highest point End Pass type
(mag) Time Alt. Az. Time Alt. Az. Time Alt. Az.
25 Nov 7.9 04:36:45 10° NE 04:39:03 13° ENE 04:41:20 10° E visible
25 Nov 7.2 17:34:28 10° SE 17:34:30 10° SE 17:34:30 10° SE visible
25 Nov 7.4 19:14:08 10° SSW 19:15:04 15° SSW 19:15:04 15° SSW visible
26 Nov 5.8 05:41:48 10° N 05:46:56 55° E 05:52:01 10° SSE visible
26 Nov 6.2 18:40:13 10° S 18:42:58 32° SSW 18:42:58 32° SSW visible
27 Nov 6.9 05:08:37 10° NNE 05:13:14 31° ENE 05:17:49 10° SE visible
27 Nov 5.2 18:06:48 10° SSE 18:10:58 52° SE 18:10:58 52° SE visible
27 Nov 7.6 19:49:41 10° WSW 19:51:33 16° W 19:51:33 16° W visible
28 Nov 7.7 04:35:52 10° NNE 04:39:24 18° ENE 04:42:55 10° ESE visible
28 Nov 5.6 17:33:54 10° SSE 17:38:32 34° E 17:39:03 33° ENE visible
28 Nov 6.7 19:14:43 10° SW 19:19:16 30° WNW 19:19:38 30° WNW visible
29 Nov 5.2 05:41:49 10° N 05:47:04 78° E 05:52:16 10° S visible
29 Nov 6.2 17:01:38 10° SE 17:05:17 20° E 17:07:15 16° NE visible
29 Nov 5.7 18:40:29 10° SSW 18:45:33 53° W 18:47:50 31° NNW visible
30 Nov 6.2 05:08:28 10° N 05:13:27 44° E 05:18:23 10° SSE visible
30 Nov 6.8 16:30:54 10° E 16:32:09 11° ENE 16:33:23 10° ENE visible
30 Nov 4.9 18:06:47 10° S 18:11:59 87° E 18:16:13 16° N visible
30 Nov 7.9 19:51:22 10° W 19:53:27 12° WNW 19:55:33 10° NW visible
01 Dec 7.2 04:35:25 10° NNE 04:39:42 25° ENE 04:43:57 10° SE visible
01 Dec 5.2 17:33:33 10° SSE 17:38:32 48° E 17:43:32 10° NNE visible
01 Dec 7.3 19:15:34 10° SW 19:19:32 22° WNW 19:23:30 10° NNW visible
02 Dec 7.9 04:02:59 10° NE 04:05:48 15° ENE 04:08:36 10° ESE visible
02 Dec 5.0 05:41:56 10° N 05:47:09 74° W 05:52:19 10° S visible
02 Dec 5.9 17:00:52 10° SE 17:05:12 27° E 17:09:33 10° NNE visible
02 Dec 6.4 18:40:56 10° SSW 18:45:44 37° W 18:50:35 10° NNW visible
03 Dec 5.5 05:08:25 10° N 05:13:36 62° E 05:18:45 10° SSE visible
03 Dec 6.5 16:28:58 10° ESE 16:31:59 16° ENE 16:35:00 10° NE visible
03 Dec 5.3 18:06:55 10° SSW 18:12:05 67° W 18:17:17 10° N visible
04 Dec 6.6 04:35:10 10° NNE 04:39:56 35° E 04:44:40 10° SE visible
04 Dec 5.9 06:16:04 10° NNW 06:20:32 29° W 06:24:58 10° SW visible
04 Dec 4.9 17:33:24 10° S 17:38:33 69° E 17:43:45 10° N visible
04 Dec 7.7 19:16:47 10° WSW 19:19:50 16° WNW 19:22:54 10° NW visible
